Overview Statistics Trail Chart Weather Telemetry Raw packets
 

This is the latest recevied weather packets stored in our database for station/object OM5ZU-10. If no packets are shown the sender has not sent any weather packets the latest 10 day(s).

<< 16 17 18 19 20 21 22 >>
Time Temp. Humidity Pressure Rain* Wind** Luminosity Snow
1788184207 31.67° C 40% 1013.3 hPa - - - -
1788183307 31.67° C 39% 1013.3 hPa - - - -
1788182407 31.67° C 41% 1013.2 hPa - - - -
1788181507 32.78° C 39% 1013.3 hPa - - - -
1788180606 33.33° C 38% 1013.5 hPa - - - -
1788179706 31.67° C 41% 1013.5 hPa - - - -
1788178806 31.11° C 42% 1013.6 hPa - - - -
1788177906 32.22° C 39% 1013.4 hPa - - - -
1788177006 31.11° C 40% 1013.6 hPa - - - -
1788176106 31.67° C 40% 1013.5 hPa - - - -
1788175205 33.33° C 36% 1013.6 hPa - - - -
1788174305 33.33° C 37% 1013.8 hPa - - - -
1788173405 33.89° C 35% 1014 hPa - - - -
1788172505 33.89° C 35% 1014.1 hPa - - - -
1788171605 33.89° C 35% 1014.3 hPa - - - -
1788170705 32.78° C 37% 1014.4 hPa - - - -
1788169805 33.33° C 39% 1014.6 hPa - - - -
1788168904 32.78° C 39% 1014.5 hPa - - - -
1788168004 31.67° C 37% 1014.5 hPa - - - -
1788167104 32.78° C 37% 1014.6 hPa - - - -
1788166220 31.67° C 38% 1014.8 hPa - - - -
1788165304 31.67° C 38% 1014.7 hPa - - - -
1788164404 31.11° C 39% 1014.8 hPa - - - -
1788163503 30° C 41% 1014.8 hPa - - - -
1788162603 30° C 40% 1014.9 hPa - - - -

* Rain since midnight (hover to see other rain measurements)
** Current wind speed in m/s (hover to see current wind gust speed)